DW2973 Weather Reports


time (UTC)temp
C
wind
direction
speed
KPH
gust
KPH
rain 1hr
cm
rain 24hr
cm
rain mn
cm
humidity
%
barometer
mb
20260903164543 18 243 4.8 0.0 0.00 0.00 0.05 88 1004.3
20260903163043 18 253 3.2 0.0 0.00 0.00 0.05 89 1004.4
20260903161541 19 215 3.2 0.0 0.00 0.00 0.05 90 1004.3
20260903160041 20 219 3.2 0.0 0.00 0.00 0.05 91 1004.7
20260903154540 20 227 1.6 0.0 0.00 0.00 0.05 93 1004.6
20260903153036 19 225 3.2 0.0 0.00 0.00 0.05 94 1004.8
20260903151538 18 223 1.6 0.0 0.00 0.00 0.05 94 1004.7
20260903150043 18 219 8.0 0.0 0.00 0.00 0.05 94 1004.6
20260903144529 18 232 4.8 0.0 0.00 0.00 0.05 95 1004.7
20260903143034 17 223 0.0 0.0 0.00 0.00 0.05 94 1004.9
20260903141524 17 223 1.6 0.0 0.00 0.00 0.05 94 1004.9
20260903140024 17 233 1.6 0.0 0.00 0.00 0.05 94 1005.2
20260903134524 17 232 0.0 0.0 0.00 0.00 0.05 94 1005.4
20260903133020 17 232 1.6 0.0 0.00 0.00 0.05 94 1005.6
20260903131519 17 225 0.0 0.0 0.00 0.00 0.05 94 1005.6
20260903130021 17 225 3.2 0.0 0.00 0.00 0.05 94 1005.8
20260903124515 17 231 1.6 0.0 0.00 0.00 0.05 94 1005.7
20260903123012 16 227 1.6 0.0 0.00 0.00 0.05 94 1006.1
20260903121511 16 235 1.6 0.0 0.00 0.00 0.05 94 1006.2
20260903120009 16 224 0.0 0.0 0.00 0.00 0.05 94 1006.3
20260903114508 16 188 0.0 0.0 0.00 0.00 0.05 94 1006.4
20260903113005 16 175 0.0 0.0 0.00 0.00 0.05 94 1006.6
20260903111503 16 169 0.0 0.0 0.00 0.00 0.05 94 1006.7
20260903110001 16 142 0.0 0.0 0.00 0.00 0.05 94 1007.0
20260903104600 16 169 0.0 0.0 0.00 0.00 0.05 93 1007.2
20260903103058 16 169 0.0 0.0 0.00 0.00 0.05 93 1007.4
20260903101602 16 168 0.0 0.0 0.00 0.00 0.03 93 1007.5
20260903100055 16 168 1.6 0.0 0.00 0.00 0.03 94 1007.9
20260903094639 16 231 0.0 0.0 0.00 0.00 0.03 94 1008.1
20260903093052 16 227 0.0 0.0 0.00 0.00 0.03 94 1008.3
20260903091549 15 227 0.0 0.0 0.00 0.00 0.03 93 1008.5
20260903090049 15 227 0.0 0.0 0.00 0.00 0.03 93 1008.8
20260903084546 15 227 0.0 0.0 0.00 0.00 0.03 93 1008.9
20260903083045 15 225 0.0 0.0 0.00 0.00 0.03 93 1009.0
20260903081544 15 223 0.0 0.0 0.00 0.00 0.03 94 1009.1
20260903080055 15 222 0.0 0.0 0.00 0.00 0.03 93 1009.2
20260903074541 15 226 1.6 0.0 0.00 0.00 0.03 93 1009.4
20260903073043 16 233 0.0 0.0 0.00 0.00 0.03 93 1009.6
20260903071538 16 233 0.0 0.0 0.00 0.00 0.03 93 1009.7
20260903070036 16 234 1.6 0.0 0.00 0.00 0.03 93 1009.8
20260903064536 16 218 0.0 0.0 0.00 0.00 0.03 93 1010.0
20260903063034 16 227 0.0 0.0 0.00 0.00 0.03 94 1010.0
20260903061532 16 228 1.6 0.0 0.00 0.00 0.03 93 1010.2
20260903060030 15 234 1.6 0.0 0.00 0.00 0.03 94 1010.2
20260903054527 15 227 1.6 0.0 0.00 0.00 0.03 94 1010.4
20260903053024 15 227 0.0 0.0 0.00 0.00 0.03 93 1010.6
20260903051521 14 227 0.0 0.0 0.00 0.00 0.03 93 1010.6
20260903050025 14 228 0.0 0.0 0.00 0.00 0.03 93 1010.8
20260903044523 14 228 0.0 0.0 0.00 0.00 0.03 93 1010.9
20260903043022 14 228 0.0 0.0 0.00 0.00 0.03 92 1011.1
20260903041517 14 228 0.0 0.0 0.00 0.00 0.03 92 1011.3
20260903040016 14 228 0.0 0.0 0.00 0.00 0.03 92 1011.4
20260903034514 14 228 0.0 0.0 0.00 0.00 0.03 92 1011.5
20260903033012 14 228 0.0 0.0 0.00 0.00 0.03 92 1011.7
20260903031511 14 228 0.0 0.0 0.00 0.00 0.03 92 1011.7
20260903030010 14 228 0.0 0.0 0.00 0.00 0.03 92 1011.8
20260903024512 14 227 0.0 0.0 0.00 0.00 0.03 91 1011.9
20260903023008 13 228 0.0 0.0 0.00 0.00 0.03 91 1012.0
20260903021507 13 227 0.0 0.0 0.00 0.00 0.03 91 1012.1
20260903020005 13 227 0.0 0.0 0.00 0.00 0.03 91 1012.3
20260903014504 14 227 0.0 0.0 0.00 0.00 0.03 91 1012.5
20260903013002 13 227 0.0 0.0 0.00 0.00 0.00 91 1012.6
20260903011502 13 228 0.0 0.0 0.00 0.00 0.00 90 1012.6
20260903010003 14 228 0.0 0.0 0.00 0.00 0.00 90 1012.6
20260903004501 14 228 0.0 0.0 0.00 0.00 0.00 90 1012.6
20260903003100 13 228 0.0 0.0 0.00 0.00 0.00 90 1012.7
20260903001606 13 228 0.0 0.0 0.00 0.00 0.00 90 1012.8
20260903000100 13 228 0.0 0.0 0.00 0.00 0.00 90 1012.8
20260902234558 13 226 0.0 0.0 0.00 0.00 0.00 91 1012.8
20260902233057 13 221 0.0 0.0 0.00 0.00 0.00 90 1012.9
20260902231555 13 219 0.0 0.0 0.00 0.00 0.00 90 1013.0
20260902230059 13 219 0.0 0.0 0.00 0.00 0.00 91 1013.1
20260902224558 13 220 0.0 0.0 0.00 0.00 0.00 91 1013.1
20260902223055 13 262 0.0 0.0 0.00 0.00 0.00 91 1013.1
20260902221554 13 263 0.0 0.0 0.00 0.00 0.00 91 1013.1
20260902220056 14 263 0.0 0.0 0.00 0.00 0.00 91 1013.0
20260902214549 14 263 0.0 0.0 0.00 0.00 0.05 92 1012.9
20260902213050 14 263 0.0 0.0 0.00 0.00 0.05 92 1012.9
20260902211548 15 263 0.0 0.0 0.00 0.00 0.05 92 1012.8
20260902210055 15 263 0.0 0.0 0.00 0.00 0.05 92 1012.8
20260902204548 15 227 0.0 0.0 0.00 0.00 0.05 92 1012.8
20260902203048 15 226 0.0 0.0 0.00 0.00 0.05 92 1012.7
20260902201548 15 249 0.0 0.0 0.00 0.00 0.05 91 1012.9
20260902200048 15 229 0.0 0.0 0.00 0.00 0.05 91 1012.9
20260902194547 15 227 1.6 0.0 0.00 0.00 0.05 91 1013.0
20260902193046 15 225 0.0 0.0 0.00 0.00 0.05 91 1012.9
20260902191555 15 219 1.6 0.0 0.00 0.00 0.05 90 1012.9
20260902190053 15 228 1.6 0.0 0.00 0.00 0.05 90 1013.0
20260902184543 15 221 1.6 0.0 0.00 0.00 0.05 90 1012.9
20260902183043 15 214 3.2 0.0 0.00 0.00 0.05 90 1012.6
20260902181549 15 232 1.6 0.0 0.00 0.00 0.05 89 1012.5
20260902180044 16 227 1.6 0.0 0.00 0.00 0.05 89 1012.6
20260902174544 16 223 1.6 0.0 0.00 0.00 0.05 89 1012.5
20260902173042 16 234 3.2 0.0 0.00 0.00 0.05 89 1012.6
20260902171603 16 227 1.6 0.0 0.00 0.00 0.05 89 1012.6
20260902170039 16 240 3.2 0.0 0.00 0.00 0.05 89 1012.5